When you browse on this site, cookies collect data to enhance your experience and personalize the content and advertising you see.
Visit our Privacy Policy to learn more. By continuing to use the site, you agree to this use of cookies and data.
  • In United Kingdom
  • List of Countries
  • For 7 days
  • Water Temperature
  • Weather Map
  • Weather Widgets
  • user-avatar
    Login

    Hourly Weather Sankt Polten

    Today, 17 September, Tuesday

    Time Temperature Precipitation Wind Pressure Humidity
    00:00 +19°C° 0.1 mm 1 mps 736 mmHg 84%
    01:00 +18°C° 0 mm 2 mps 736 mmHg 87%
    02:00 +18°C° 0 mm 2 mps 736 mmHg 88%
    03:00 +18°C° 0 mm 2 mps 735 mmHg 89%
    04:00 +18°C° 0 mm 1 mps 735 mmHg 90%
    05:00 +17°C° 0 mm 2 mps 735 mmHg 89%
    06:00 +17°C° 0 mm 2 mps 736 mmHg 88%
    07:00 +18°C° 0 mm 2 mps 736 mmHg 88%
    08:00 +18°C° 0 mm 2 mps 736 mmHg 85%
    09:00 +18°C° 0 mm 2 mps 736 mmHg 82%
    10:00 +19°C° 0 mm 2 mps 736 mmHg 79%
    11:00 +19°C° 0 mm 2 mps 736 mmHg 79%
    12:00 +19°C° 0 mm 3 mps 735 mmHg 79%
    13:00 +19°C° 0 mm 3 mps 735 mmHg 79%
    14:00 +19°C° 0.1 mm 4 mps 735 mmHg 77%
    15:00 +20°C° 0.1 mm 5 mps 734 mmHg 75%
    16:00 +20°C° 0.1 mm 6 mps 734 mmHg 73%
    17:00 +19°C° 0 mm 5 mps 735 mmHg 77%
    18:00 +18°C° 0 mm 4 mps 735 mmHg 80%
    19:00 +17°C° 0 mm 3 mps 735 mmHg 84%
    20:00 +16°C° 0.1 mm 3 mps 735 mmHg 84%
    21:00 +14°C° 0.1 mm 3 mps 736 mmHg 85%
    22:00 +13°C° 0.1 mm 4 mps 736 mmHg 85%
    23:00 +12°C° 0 mm 3 mps 737 mmHg 86%

    Tomorrow, 18 September, Wednesday

    Time Temperature Precipitation Wind Pressure Humidity
    00:00 +12°C° 0 mm 3 mps 737 mmHg 86%
    01:00 +11°C° 0 mm 3 mps 738 mmHg 87%
    02:00 +10°C° 0 mm 3 mps 738 mmHg 85%
    03:00 +10°C° 0 mm 3 mps 738 mmHg 83%
    04:00 +9°C° 0 mm 3 mps 738 mmHg 81%
    05:00 +9°C° 0 mm 3 mps 739 mmHg 79%
    06:00 +9°C° 0 mm 3 mps 739 mmHg 78%
    07:00 +9°C° 0 mm 2 mps 740 mmHg 77%
    08:00 +10°C° 0 mm 3 mps 740 mmHg 68%
    09:00 +12°C° 0 mm 3 mps 741 mmHg 59%
    10:00 +14°C° 0 mm 3 mps 741 mmHg 51%
    11:00 +16°C° 0 mm 3 mps 741 mmHg 46%
    12:00 +17°C° 0 mm 3 mps 741 mmHg 41%
    13:00 +18°C° 0 mm 2 mps 740 mmHg 36%
    14:00 +17°C° 0 mm 2 mps 740 mmHg 38%
    15:00 +17°C° 0 mm 2 mps 740 mmHg 39%
    16:00 +17°C° 0 mm 2 mps 740 mmHg 41%
    17:00 +15°C° 0 mm 1 mps 740 mmHg 48%
    18:00 +13°C° 0 mm 1 mps 740 mmHg 56%
    19:00 +10°C° 0 mm 1 mps 740 mmHg 64%
    20:00 +10°C° 0 mm 1 mps 740 mmHg 64%
    21:00 +9°C° 0 mm 1 mps 741 mmHg 65%
    22:00 +9°C° 0 mm 1 mps 741 mmHg 66%
    23:00 +9°C° 0 mm 1 mps 741 mmHg 69%

    Day after tomorrow, 19 September, Thursday

    Time Temperature Precipitation Wind Pressure Humidity
    00:00 +7°C° 0 mm 0 mps 741 mmHg 72%
    01:00 +6°C° 0 mm 0 mps 741 mmHg 76%
    02:00 +6°C° 0 mm 0 mps 741 mmHg 78%
    03:00 +6°C° 0 mm 0 mps 741 mmHg 80%
    04:00 +7°C° 0 mm 1 mps 741 mmHg 82%
    05:00 +6°C° 0 mm 0 mps 742 mmHg 80%
    06:00 +7°C° 0 mm 0 mps 742 mmHg 78%
    07:00 +8°C° 0 mm 0 mps 742 mmHg 76%
    08:00 +11°C° 0 mm 1 mps 742 mmHg 69%
    09:00 +13°C° 0 mm 1 mps 743 mmHg 62%
    10:00 +15°C° 0 mm 1 mps 743 mmHg 55%
    11:00 +15°C° 0 mm 1 mps 743 mmHg 53%
    12:00 +16°C° 0 mm 2 mps 743 mmHg 51%
    13:00 +16°C° 0 mm 2 mps 742 mmHg 49%
    14:00 +16°C° 0 mm 2 mps 742 mmHg 49%
    15:00 +16°C° 0 mm 2 mps 742 mmHg 48%
    16:00 +16°C° 0 mm 2 mps 742 mmHg 48%
    17:00 +13°C° 0 mm 2 mps 742 mmHg 57%
    18:00 +11°C° 0 mm 1 mps 743 mmHg 65%
    19:00 +9°C° 0 mm 1 mps 743 mmHg 74%
    20:00 +8°C° 0 mm 1 mps 743 mmHg 75%
    21:00 +8°C° 0 mm 1 mps 744 mmHg 77%
    22:00 +7°C° 0 mm 1 mps 744 mmHg 78%
    23:00 +7°C° 0 mm 1 mps 744 mmHg 79%

    20 September, Friday

    Time Temperature Precipitation Wind Pressure Humidity
    00:00 +7°C° 0 mm 1 mps 744 mmHg 80%
    01:00 +6°C° 0 mm 1 mps 744 mmHg 80%
    02:00 +6°C° 0 mm 1 mps 744 mmHg 81%
    03:00 +6°C° 0 mm 1 mps 744 mmHg 82%
    04:00 +6°C° 0 mm 1 mps 744 mmHg 82%
    05:00 +6°C° 0 mm 0 mps 744 mmHg 79%
    06:00 +6°C° 0 mm 0 mps 744 mmHg 76%
    07:00 +7°C° 0 mm 0 mps 744 mmHg 72%
    08:00 +10°C° 0 mm 1 mps 744 mmHg 65%
    09:00 +13°C° 0 mm 1 mps 744 mmHg 57%
    10:00 +15°C° 0 mm 1 mps 744 mmHg 49%
    11:00 +16°C° 0 mm 1 mps 744 mmHg 45%
    12:00 +18°C° 0 mm 1 mps 743 mmHg 42%
    13:00 +18°C° 0 mm 1 mps 743 mmHg 38%
    14:00 +18°C° 0 mm 1 mps 743 mmHg 40%
    15:00 +17°C° 0 mm 2 mps 742 mmHg 41%
    16:00 +17°C° 0 mm 2 mps 742 mmHg 42%
    17:00 +14°C° 0 mm 1 mps 742 mmHg 49%
    18:00 +12°C° 0 mm 1 mps 743 mmHg 57%
    19:00 +10°C° 0 mm 1 mps 743 mmHg 64%
    20:00 +9°C° 0 mm 1 mps 743 mmHg 65%
    21:00 +9°C° 0 mm 1 mps 743 mmHg 67%
    22:00 +9°C° 0 mm 1 mps 744 mmHg 69%
    23:00 +8°C° 0 mm 1 mps 744 mmHg 72%

    21 September, Saturday

    Time Temperature Precipitation Wind Pressure Humidity
    00:00 +8°C° 0 mm 1 mps 744 mmHg 74%
    01:00 +8°C° 0 mm 1 mps 744 mmHg 77%
    02:00 +7°C° 0 mm 1 mps 743 mmHg 79%
    03:00 +7°C° 0 mm 1 mps 743 mmHg 81%
    04:00 +7°C° 0 mm 1 mps 743 mmHg 82%
    05:00 +7°C° 0 mm 2 mps 743 mmHg 80%
    06:00 +7°C° 0 mm 2 mps 743 mmHg 77%
    07:00 +8°C° 0 mm 2 mps 743 mmHg 74%
    08:00 +10°C° 0 mm 2 mps 743 mmHg 66%
    09:00 +13°C° 0 mm 3 mps 743 mmHg 58%
    10:00 +16°C° 0 mm 3 mps 743 mmHg 50%
    11:00 +18°C° 0 mm 3 mps 743 mmHg 47%
    12:00 +19°C° 0 mm 4 mps 742 mmHg 45%
    13:00 +20°C° 0 mm 4 mps 742 mmHg 43%
    14:00 +20°C° 0 mm 4 mps 742 mmHg 44%
    15:00 +20°C° 0 mm 3 mps 741 mmHg 45%
    16:00 +20°C° 0 mm 3 mps 741 mmHg 47%
    17:00 +17°C° 0 mm 3 mps 741 mmHg 53%
    18:00 +14°C° 0 mm 3 mps 741 mmHg 59%
    19:00 +13°C° 0 mm 2 mps 741 mmHg 65%
    20:00 +12°C° 0 mm 2 mps 741 mmHg 68%
    21:00 +10°C° 0 mm 2 mps 741 mmHg 70%
    22:00 +9°C° 0 mm 2 mps 742 mmHg 73%
    23:00 +9°C° 0 mm 2 mps 741 mmHg 74%

    22 September, Sunday

    Time Temperature Precipitation Wind Pressure Humidity
    00:00 +10°C° 0 mm 1 mps 741 mmHg 75%
    01:00 +9°C° 0 mm 1 mps 741 mmHg 77%
    02:00 +9°C° 0 mm 1 mps 741 mmHg 77%
    03:00 +9°C° 0 mm 1 mps 741 mmHg 78%
    04:00 +9°C° 0 mm 1 mps 741 mmHg 78%
    05:00 +9°C° 0 mm 1 mps 741 mmHg 76%
    06:00 +10°C° 0 mm 1 mps 741 mmHg 74%
    07:00 +11°C° 0 mm 1 mps 741 mmHg 72%
    08:00 +14°C° 0 mm 1 mps 741 mmHg 63%
    09:00 +16°C° 0 mm 1 mps 741 mmHg 55%
    10:00 +19°C° 0 mm 2 mps 741 mmHg 47%
    11:00 +21°C° 0 mm 2 mps 741 mmHg 44%
    12:00 +23°C° 0 mm 2 mps 740 mmHg 41%
    13:00 +25°C° 0 mm 2 mps 740 mmHg 38%
    14:00 +25°C° 0 mm 2 mps 739 mmHg 41%
    15:00 +24°C° 0 mm 2 mps 739 mmHg 44%
    16:00 +24°C° 0 mm 2 mps 739 mmHg 47%
    17:00 +20°C° 0 mm 2 mps 739 mmHg 55%
    18:00 +17°C° 0 mm 2 mps 738 mmHg 62%
    19:00 +15°C° 0 mm 2 mps 738 mmHg 70%
    20:00 +14°C° 0 mm 2 mps 738 mmHg 72%
    21:00 +13°C° 0 mm 1 mps 739 mmHg 74%
    22:00 +12°C° 0 mm 1 mps 739 mmHg 76%
    23:00 +12°C° 0 mm 1 mps 739 mmHg 75%
    Show more